Location: Unspecified
(35.7250°N, 0.0000°E)
Time: 06:51:19
(UTC+00:00)

Vanguard 1 - Pass Details

Date: 03 July 2019
Orbit: 653 x 3830 km, 34.3° (Epoch: 15 July)

Event Time Altitude Azimuth Distance (km) Brightness Sun altitude
Rises 21:54:16 0° 222° (SW) 7,117 14.3 -23.8°
Reaches altitude 10° 21:58:46 10° 218° (SW) 6,387 14.0 -24.3°
Maximum altitude 22:20:10 55° 148° (SSE) 4,288 12.8 -26.4°
Drops below altitude 10° 22:40:17 10° 78° (ENE) 6,085 14.0 -28.1°
Sets 22:44:23 0° 74° (ENE) 6,784 14.3 -28.4°
